GSAT-18

Last updated on Tue Sep 22 2026 00:03:14 GMT+0000 (Coordinated Universal Time)

1 41793U 16060A 26264.50371741 -.00000080 00000+0 00000+0 0 9992 2 41793 0.0215 110.9582 0002792 9.1274 135.6054 1.00271757 36499
UTC large
Height (km)
Speed (km/s)
/
Latitude / Longitude
Inclination (degrees)
Orbital Period (minutes)
Azimuth
Elevation
Range (km)
Doppler Factor

Next 0 passes for location: London (51.5072 / 0.1276)

No passes found over London.
GSAT-18